sat.trackr.live / text

‹ back to catalog

STARLINK-30598

NORAD 58079 · 2023-160E

PAYLOAD ACTIVE UNKNOWN

§ Identity

Operator
Country
US
Launch date
2023-10-18
Launch site
AFETR
Launch vehicle
Mass (kg)
RCS (m²)

Purposes: comms

External: N2YO · Heavens-Above · Gunter

§ Orbital elements

Epoch: 2026-05-24T23:29:36.662784Z

Period
94.27 min
Inclination
43.0040°
Eccentricity
0.0001073
Mean motion
15.27588291 rev/d
Perigee alt
482.3 km
Apogee alt
483.8 km
Semi-major
6,861.2 km
B*
3.8529e-5
RAAN
7.0150°
Arg perigee
278.5571°
Mean anomaly
81.5160°
Rev number
14,461

§ Raw data

STARLINK-305981 58079U 23160E   26144.97889656  .00000799  00000+0  38529-4 0  99912 58079  43.0040   7.0150 0001073 278.5571  81.5160 15.27588291144616

JSON: /api/v1/satellites/58079 · /tle

For live sub-satellite position, see the globe view (requires WebGL).

§ Visibility from observer

Set your observer location to see the next 7 days of passes ≥ 10°. The values pass through the URL so the page stays shareable.

No JS? Fill the form by hand. The geolocation button needs JavaScript.